Weather History for KSLK - May, 2013

Change the Weather History Date:

Thursday, May 23, 2013

  Actual Average Record
Temperature  
Mean Temperature 61 °F 53 °F  
Max Temperature 72 °F 66 °F 86 °F (1975)
Min Temperature 50 °F 39 °F 26 °F (1967)
Degree Days  
Heating Degree Days 2 12  
Month to date heating degree days 374  
Since 1 July heating degree days 9145  
Cooling Degree Days 0 0  
Month to date cooling degree days 1 0  
Year to date cooling degree days 1 0  
Growing Degree Days 12 (Base 50)    
Moisture  
Dew Point 59 °F    
Average Humidity 84    
Maximum Humidity 100    
Minimum Humidity 68    
Precipitation  
Precipitation 0.47 in 0.13 in 0.88 in (1984)
Month to date precipitation 3.97 2.45  
Year to date precipitation 9.23 11.36  
Sea Level Pressure  
Sea Level Pressure 29.75 in    
Wind  
Wind Speed 7 mph (SW)    
Max Wind Speed 24 mph    
Max Gust Speed 37 mph    
Visibility 6 miles    
Events Fog , Rain , Thunderstorm    
T = Trace of Precipitation, MM = Missing Value Source: NWS Daily Summary

Daily Weather History Graph

Daily Weather History Graph

Search for Another Location

Airport or City:

Trip Planner

Search our weather history database for the weather conditions in past years. The results will help you decide how hot, cold, wet, or windy it might be!

Date:

Astronomy

May. 23, 2013 Rise Set
Actual Time 5:21 AM EDT 8:26 PM EDT
Civil Twilight 4:46 AM EDT 9:00 PM EDT
Nautical Twilight 4:02 AM EDT 9:45 PM EDT
Astronomical Twilight 3:09 AM EDT 10:39 PM EDT
Moon 6:52 PM EDT (5/23) 4:08 AM EDT (5/23)
Length of Visible Light 16h 14m
Length of Day
15h 04m
Waxing Gibbous, 97% of the Moon is Illuminated
May 23
Waxing Gibbous
May 25
Full
May 31
Last Quarter
Jun 8
New
Jun 16
First Quarter

Hourly Weather History & Observations

Time (EDT) Temp. Dew Point Humidity Pressure Visibility Wind Dir Wind Speed Gust Speed Precip Events Conditions
12:10 AM 68.0 °F 62.6 °F 83% 29.73 in 10.0 mi SW 12.7 mph 21.9 mph 0.00 in   Mostly Cloudy
12:28 AM 66.2 °F 62.6 °F 88% 29.76 in 1.8 mi SW 27.6 mph 49.5 mph 0.11 in Rain Light Rain
12:37 AM 64.4 °F 62.6 °F 94% 29.76 in 3.0 mi SW 11.5 mph 33.4 mph 0.12 in Rain Rain
12:48 AM 66.2 °F 62.6 °F 88% 29.77 in 10.0 mi SSW 20.7 mph 27.6 mph 0.12 in Thunderstorm Overcast
12:51 AM 66.9 °F 62.1 °F 84% 29.75 in 7.0 mi SSW 21.9 mph 31.1 mph 0.13 in Rain , Thunderstorm Light Rain
1:03 AM 64.4 °F 62.6 °F 94% 29.77 in 7.0 mi SSW 16.1 mph 26.5 mph 0.00 in Rain Light Rain
1:51 AM 64.0 °F 61.0 °F 90% 29.75 in 6.0 mi SW 12.7 mph 19.6 mph 0.02 in   Overcast
2:51 AM 63.0 °F 61.0 °F 93% 29.75 in 10.0 mi SW 6.9 mph - 0.02 in   Overcast
3:51 AM 62.1 °F 59.0 °F 90% 29.72 in 10.0 mi SW 4.6 mph - 0.00 in   Mostly Cloudy
4:51 AM 60.1 °F 59.0 °F 96% 29.73 in 10.0 mi SSW 3.5 mph - N/A   Partly Cloudy
5:51 AM 61.0 °F 57.9 °F 90% 29.73 in 10.0 mi SW 4.6 mph - N/A   Scattered Clouds
6:51 AM 62.1 °F 59.0 °F 90% 29.74 in 10.0 mi SW 4.6 mph - N/A   Scattered Clouds
7:51 AM 63.0 °F 59.0 °F 87% 29.75 in 10.0 mi SW 6.9 mph - N/A   Overcast
8:46 AM 64.4 °F 60.8 °F 88% 29.77 in 10.0 mi SW 8.1 mph - N/A   Overcast
8:51 AM 64.0 °F 60.1 °F 87% 29.76 in 10.0 mi SW 8.1 mph - N/A   Overcast
9:51 AM 63.0 °F 61.0 °F 93% 29.76 in 5.0 mi SW 8.1 mph - 0.01 in Rain Light Rain
10:30 AM 62.6 °F 60.8 °F 94% 29.78 in 5.0 mi SW 5.8 mph - 0.02 in Rain Light Rain
10:51 AM 63.0 °F 61.0 °F 93% 29.76 in 8.0 mi SSW 8.1 mph - 0.02 in   Overcast
11:37 AM 64.4 °F 62.6 °F 94% 29.77 in 10.0 mi SSW 13.8 mph - 0.00 in   Overcast
11:51 AM 66.9 °F 62.1 °F 84% 29.75 in 10.0 mi SSW 12.7 mph - 0.00 in   Overcast
11:58 AM 66.2 °F 62.6 °F 88% 29.77 in 10.0 mi SSW 15.0 mph 20.7 mph N/A   Overcast
12:51 PM 69.1 °F 62.1 °F 78% 29.73 in 10.0 mi SSW 9.2 mph - N/A   Mostly Cloudy
1:00 PM 69.8 °F 62.6 °F 78% 29.75 in 10.0 mi SW 13.8 mph 21.9 mph N/A   Mostly Cloudy
1:23 PM 68.0 °F 59.0 °F 73% 29.74 in 10.0 mi SSW 13.8 mph 24.2 mph N/A   Mostly Cloudy
1:34 PM 69.8 °F 60.8 °F 73% 29.74 in 10.0 mi SSW 15.0 mph 21.9 mph N/A   Overcast
1:51 PM 72.0 °F 61.0 °F 68% 29.70 in 10.0 mi SSW 15.0 mph 25.3 mph N/A   Mostly Cloudy
2:12 PM 69.8 °F 59.0 °F 68% 29.75 in 1.5 mi WSW 21.9 mph 36.8 mph 0.08 in Thunderstorm Unknown
2:19 PM 62.6 °F 59.0 °F 88% 29.75 in 0.5 mi WSW 5.8 mph 36.8 mph 0.20 in Fog , Rain , Thunderstorm Heavy Thunderstorms and Rain
2:25 PM 62.6 °F 60.8 °F 94% 29.74 in 2.5 mi West 8.1 mph - 0.20 in Rain , Thunderstorm Light Rain
2:28 PM 62.6 °F 60.8 °F 94% 29.74 in 5.0 mi West 8.1 mph - 0.20 in Rain Light Rain
2:49 PM 62.6 °F 60.8 °F 94% 29.76 in 1.8 mi WSW 8.1 mph 16.1 mph 0.25 in Rain Rain
2:51 PM 62.1 °F 60.1 °F 93% 29.75 in 1.5 mi WSW 10.4 mph 16.1 mph 0.26 in Rain Heavy Rain
3:08 PM 62.6 °F 60.8 °F 94% 29.76 in 3.0 mi SW 8.1 mph - 0.07 in Rain Light Rain
3:27 PM 62.6 °F 60.8 °F 94% 29.75 in 9.0 mi SW 6.9 mph - 0.07 in   Overcast
3:32 PM 60.8 °F 59.0 °F 94% 29.75 in 7.0 mi SW 6.9 mph - 0.07 in Rain Light Rain
3:51 PM 61.0 °F 59.0 °F 93% 29.75 in 10.0 mi SSW 6.9 mph - 0.07 in   Overcast
4:51 PM 60.1 °F 57.9 °F 93% 29.74 in 3.0 mi SSW 5.8 mph - 0.05 in Rain Rain
5:51 PM 62.1 °F 60.1 °F 93% 29.74 in 8.0 mi SW 5.8 mph - 0.01 in Rain Light Rain
6:51 PM 61.0 °F 59.0 °F 93% 29.73 in 10.0 mi SSW 6.9 mph - 0.00 in   Mostly Cloudy
7:07 PM 60.8 °F 59.0 °F 94% 29.74 in 8.0 mi South 4.6 mph - N/A   Mostly Cloudy
7:51 PM 60.1 °F 57.9 °F 93% 29.73 in 7.0 mi WSW 3.5 mph - N/A   Overcast
8:51 PM 59.0 °F 57.9 °F 96% 29.73 in 8.0 mi WSW 4.6 mph - N/A   Overcast
9:31 PM 59.0 °F 57.2 °F 94% 29.74 in 7.0 mi West 3.5 mph - N/A   Overcast
9:51 PM 59.0 °F 57.9 °F 96% 29.74 in 7.0 mi Calm Calm - N/A   Overcast
10:04 PM 59.0 °F 57.2 °F 94% 29.76 in 5.0 mi Variable 3.5 mph - N/A   Overcast
10:09 PM 57.2 °F 57.2 °F 100% 29.76 in 2.5 mi Variable 3.5 mph - N/A   Overcast
10:19 PM 57.2 °F 57.2 °F 100% 29.75 in 1.2 mi North 4.6 mph - N/A   Overcast
10:38 PM 55.4 °F 55.4 °F 100% 29.76 in 0.5 mi North 5.8 mph - N/A Fog Fog
10:51 PM 55.9 °F 55.0 °F 97% 29.75 in 0.8 mi Calm Calm - N/A   Overcast
11:01 PM 55.4 °F 55.4 °F 100% 29.76 in 1.0 mi NNE 6.9 mph - N/A   Overcast
11:10 PM 55.4 °F 53.6 °F 94% 29.76 in 0.8 mi North 5.8 mph - N/A   Overcast
11:19 PM 55.4 °F 53.6 °F 94% 29.76 in 1.0 mi North 4.6 mph - N/A   Overcast
11:42 PM 53.6 °F 53.6 °F 100% 29.76 in 2.5 mi Variable 3.5 mph - 0.01 in Rain Light Rain
11:51 PM 53.1 °F 53.1 °F 100% 29.75 in 4.0 mi NNW 5.8 mph - 0.01 in Rain Light Rain